DAL2136 KATL-KJFK

Flight info

Callsign DAL2136
Flight time 1h 38m
Altitude 41000
Route PHIIL3 HRTWL Q64 SAWED Q108 SIE CAMRN5
Aircraft A359/H-SDE2E3GHIJ3J4J5LM1ORWXY/LB1D1

Departure

Time 2026-05-06 23:35
Airport Hartsfield Jackson Atlanta International Airport (KATL)

Arrival

Time 2026-05-07 01:13
Airport John F. Kennedy International Airport (KJFK)
Time Latitude Longitude Altitude Speed Heading
2026-05-06 23:10 33.63802 -84.42044 1042 ft 0 kts 90°
2026-05-06 23:23 33.63802 -84.42045 1042 ft 1 kts 90°
2026-05-06 23:24 33.63802 -84.42058 1042 ft 2 kts 94°
2026-05-06 23:24 33.63804 -84.42077 1043 ft 2 kts 98°
2026-05-06 23:24 33.63807 -84.42097 1043 ft 2 kts 104°
2026-05-06 23:24 33.63812 -84.42116 1043 ft 2 kts 114°
2026-05-06 23:25 33.63820 -84.42133 1043 ft 2 kts 126°
2026-05-06 23:25 33.63831 -84.42148 1044 ft 2 kts 143°
2026-05-06 23:25 33.63846 -84.42157 1042 ft 2 kts 163°
2026-05-06 23:25 33.63862 -84.42161 1043 ft 2 kts 179°
2026-05-06 23:26 33.63865 -84.42162 1042 ft 0 kts 180°
2026-05-06 23:27 33.63832 -84.42161 1044 ft 8 kts 179°
2026-05-06 23:27 33.63791 -84.42160 1042 ft 6 kts 179°
2026-05-06 23:27 33.63784 -84.42160 1042 ft 2 kts 179°
2026-05-06 23:28 33.63734 -84.42159 1042 ft 10 kts 179°
2026-05-06 23:28 33.63669 -84.42143 1042 ft 9 kts 142°
2026-05-06 23:28 33.63657 -84.42061 1042 ft 14 kts 90°
2026-05-06 23:28 33.63656 -84.41924 1041 ft 18 kts 90°
2026-05-06 23:29 33.63656 -84.41773 1041 ft 19 kts 90°
2026-05-06 23:29 33.63656 -84.41617 1041 ft 15 kts 90°
2026-05-06 23:29 33.63656 -84.41541 1041 ft 9 kts 90°
2026-05-06 23:29 33.63656 -84.41434 1041 ft 14 kts 90°
2026-05-06 23:30 33.63656 -84.41307 1041 ft 16 kts 90°
2026-05-06 23:30 33.63656 -84.41169 1041 ft 17 kts 90°
2026-05-06 23:30 33.63656 -84.41034 1041 ft 15 kts 90°
2026-05-06 23:30 33.63656 -84.40910 1042 ft 15 kts 90°
2026-05-06 23:31 33.63656 -84.40804 1042 ft 11 kts 92°
2026-05-06 23:31 33.63622 -84.40748 1042 ft 7 kts 167°
2026-05-06 23:31 33.63590 -84.40748 1042 ft 0 kts 181°
2026-05-06 23:33 33.63567 -84.40749 1042 ft 6 kts 181°
2026-05-06 23:33 33.63517 -84.40749 1042 ft 9 kts 180°
2026-05-06 23:33 33.63473 -84.40774 1042 ft 6 kts 245°
2026-05-06 23:33 33.63472 -84.40810 1042 ft 0 kts 270°
2026-05-06 23:34 33.63472 -84.40811 1042 ft 2 kts 270°
2026-05-06 23:34 33.63472 -84.41056 1041 ft 65 kts 270°
2026-05-06 23:34 33.63472 -84.41873 1042 ft 127 kts 270°
2026-05-06 23:35 33.63479 -84.43120 1275 ft 157 kts 266°
2026-05-06 23:35 33.63469 -84.44420 1970 ft 154 kts 265°
2026-05-06 23:35 33.63418 -84.45688 2676 ft 156 kts 261°
2026-05-06 23:35 33.63255 -84.47035 2999 ft 177 kts 255°
2026-05-06 23:36 33.62908 -84.48566 3328 ft 201 kts 249°
2026-05-06 23:36 33.62342 -84.50183 3801 ft 217 kts 243°
2026-05-06 23:36 33.61636 -84.51836 4462 ft 227 kts 242°
2026-05-06 23:36 33.60894 -84.53562 5112 ft 237 kts 242°
2026-05-06 23:37 33.60137 -84.55330 5922 ft 239 kts 242°
2026-05-06 23:37 33.59193 -84.56968 6652 ft 247 kts 228°
2026-05-06 23:37 33.57749 -84.58140 7477 ft 255 kts 205°
2026-05-06 23:37 33.55979 -84.58546 8408 ft 266 kts 187°
2026-05-06 23:38 33.54105 -84.58542 9281 ft 271 kts 185°
2026-05-06 23:38 33.52200 -84.58504 10132 ft 276 kts 186°
2026-05-06 23:38 33.50274 -84.58473 10943 ft 280 kts 185°
2026-05-06 23:38 33.48312 -84.58085 11748 ft 294 kts 168°
2026-05-06 23:39 33.46545 -84.56770 12514 ft 315 kts 142°
2026-05-06 23:39 33.45287 -84.54497 12962 ft 347 kts 115°
2026-05-06 23:39 33.44900 -84.51538 13334 ft 374 kts 89°
2026-05-06 23:39 33.45278 -84.48391 13727 ft 390 kts 81°
2026-05-06 23:40 33.45490 -84.45111 14088 ft 403 kts 91°
2026-05-06 23:40 33.45538 -84.41687 14430 ft 416 kts 91°
2026-05-06 23:40 33.45559 -84.38191 14898 ft 424 kts 91°
2026-05-06 23:40 33.45613 -84.34620 15400 ft 431 kts 87°
2026-05-06 23:41 33.46168 -84.31067 15926 ft 437 kts 73°
2026-05-06 23:41 33.47061 -84.27557 16489 ft 441 kts 71°
2026-05-06 23:41 33.47982 -84.24039 17044 ft 446 kts 71°
2026-05-06 23:41 33.48904 -84.20470 17600 ft 451 kts 71°
2026-05-06 23:42 33.49828 -84.16857 18204 ft 455 kts 71°
2026-05-06 23:42 33.50752 -84.13223 18721 ft 459 kts 71°
2026-05-06 23:42 33.51686 -84.09539 19204 ft 464 kts 71°
2026-05-06 23:42 33.52616 -84.05856 19667 ft 469 kts 71°
2026-05-06 23:43 33.53564 -84.02096 20201 ft 473 kts 71°
2026-05-06 23:43 33.54520 -83.98293 20696 ft 479 kts 71°
2026-05-06 23:43 33.55484 -83.94454 21220 ft 483 kts 71°
2026-05-06 23:43 33.56456 -83.90575 21759 ft 487 kts 70°
2026-05-06 23:44 33.57432 -83.86676 22235 ft 492 kts 70°
2026-05-06 23:44 33.58478 -83.82760 22736 ft 495 kts 66°
2026-05-06 23:44 33.59827 -83.78948 23268 ft 496 kts 62°
2026-05-06 23:44 33.61274 -83.75159 23742 ft 501 kts 61°
2026-05-06 23:45 33.62736 -83.71342 24203 ft 505 kts 61°
2026-05-06 23:45 33.64199 -83.67505 24704 ft 508 kts 61°
2026-05-06 23:45 33.65549 -83.63563 25173 ft 514 kts 68°
2026-05-06 23:45 33.66489 -83.59392 25651 ft 520 kts 74°
2026-05-06 23:46 33.67287 -83.55139 26132 ft 524 kts 75°
2026-05-06 23:46 33.68075 -83.50858 26600 ft 527 kts 75°
2026-05-06 23:46 33.68871 -83.46543 27079 ft 531 kts 75°
2026-05-06 23:46 33.69677 -83.42195 27554 ft 534 kts 75°
2026-05-06 23:47 33.70475 -83.37896 28025 ft 537 kts 75°
2026-05-06 23:47 33.71299 -83.33453 28503 ft 540 kts 75°
2026-05-06 23:47 33.72119 -83.29025 28940 ft 544 kts 75°
2026-05-06 23:47 33.72940 -83.24587 29400 ft 546 kts 75°
2026-05-06 23:48 33.73768 -83.20101 29831 ft 550 kts 75°
2026-05-06 23:48 33.74735 -83.15721 30184 ft 550 kts 68°
2026-05-06 23:48 33.76295 -83.11540 30494 ft 548 kts 56°
2026-05-06 23:48 33.78258 -83.07619 30781 ft 549 kts 53°
2026-05-06 23:49 33.80295 -83.03716 31093 ft 552 kts 53°
2026-05-06 23:49 33.82349 -82.99778 31399 ft 556 kts 53°
2026-05-06 23:49 33.84400 -82.95828 31699 ft 558 kts 53°
2026-05-06 23:49 33.86460 -82.91845 31983 ft 562 kts 53°
2026-05-06 23:50 33.88521 -82.87850 32275 ft 564 kts 53°
2026-05-06 23:50 33.92665 -82.79793 33023 ft 565 kts 53°
2026-05-06 23:50 33.94737 -82.75756 33418 ft 565 kts 52°
2026-05-06 23:51 33.96798 -82.71738 33809 ft 566 kts 52°
2026-05-06 23:51 33.98870 -82.67694 34152 ft 566 kts 52°
2026-05-06 23:51 34.00929 -82.63658 34459 ft 567 kts 53°
2026-05-06 23:51 34.02983 -82.59589 34767 ft 567 kts 53°
2026-05-06 23:52 34.05003 -82.55582 35068 ft 567 kts 52°
2026-05-06 23:52 34.06060 -82.53484 35220 ft 568 kts 52°
2026-05-06 23:52 34.08149 -82.49339 35513 ft 568 kts 52°
2026-05-06 23:52 34.10171 -82.45323 35809 ft 569 kts 52°
2026-05-06 23:53 34.12230 -82.41231 36072 ft 570 kts 52°
2026-05-06 23:53 34.14285 -82.37143 36346 ft 570 kts 52°
2026-05-06 23:53 34.16347 -82.33038 36617 ft 571 kts 52°
2026-05-06 23:53 34.18400 -82.28944 36894 ft 571 kts 52°
2026-05-06 23:54 34.20458 -82.24837 37152 ft 572 kts 51°
2026-05-06 23:54 34.22516 -82.20724 37410 ft 572 kts 51°
2026-05-06 23:54 34.24576 -82.16604 37660 ft 573 kts 51°
2026-05-06 23:54 34.26639 -82.12485 37913 ft 573 kts 51°
2026-05-06 23:55 34.28713 -82.08365 38163 ft 574 kts 51°
2026-05-06 23:55 34.30790 -82.04244 38400 ft 574 kts 50°
2026-05-06 23:55 34.32854 -82.00145 38621 ft 575 kts 50°
2026-05-06 23:55 34.34951 -81.95976 38819 ft 575 kts 50°
2026-05-06 23:56 34.37029 -81.91833 39052 ft 574 kts 50°
2026-05-06 23:56 34.39074 -81.87750 39261 ft 573 kts 50°
2026-05-06 23:56 34.41136 -81.83626 39493 ft 573 kts 50°
2026-05-06 23:56 34.43220 -81.79454 39717 ft 572 kts 50°
2026-05-06 23:57 34.45259 -81.75367 39912 ft 571 kts 50°
2026-05-06 23:57 34.47314 -81.71245 40140 ft 571 kts 50°
2026-05-06 23:57 34.49366 -81.67125 40336 ft 570 kts 50°
2026-05-06 23:57 34.51408 -81.63019 40532 ft 570 kts 50°
2026-05-06 23:58 34.53454 -81.58901 40720 ft 569 kts 50°
2026-05-06 23:58 34.55494 -81.54791 40893 ft 569 kts 50°
2026-05-06 23:58 34.59575 -81.46556 40960 ft 569 kts 50°
2026-05-06 23:59 34.63648 -81.38315 40966 ft 569 kts 50°
2026-05-06 23:59 34.67716 -81.30064 40968 ft 569 kts 50°
2026-05-07 00:00 34.71780 -81.21802 40971 ft 569 kts 50°
2026-05-07 00:00 34.75148 -81.14941 40969 ft 569 kts 50°
2026-05-07 00:01 34.79779 -81.05190 40973 ft 575 kts 57°
2026-05-07 00:01 34.83183 -80.96351 40978 ft 577 kts 58°
2026-05-07 00:02 34.86468 -80.87429 40973 ft 578 kts 59°
2026-05-07 00:02 34.89731 -80.78486 40971 ft 578 kts 58°
2026-05-07 00:03 34.92981 -80.69592 40965 ft 578 kts 58°
2026-05-07 00:03 34.96256 -80.60637 40968 ft 578 kts 58°
2026-05-07 00:04 34.99525 -80.51681 40963 ft 578 kts 58°
2026-05-07 00:04 35.02784 -80.42723 40967 ft 578 kts 59°
2026-05-07 00:05 35.06045 -80.33730 40974 ft 579 kts 58°
2026-05-07 00:05 35.09297 -80.24739 40971 ft 579 kts 59°
2026-05-07 00:06 35.11996 -80.17257 40973 ft 579 kts 59°
2026-05-07 00:06 35.15232 -80.08260 40970 ft 579 kts 59°
2026-05-07 00:07 35.18466 -79.99248 40971 ft 579 kts 59°
2026-05-07 00:07 35.21696 -79.90245 40972 ft 579 kts 59°
2026-05-07 00:08 35.24925 -79.81211 40970 ft 579 kts 59°
2026-05-07 00:08 35.28142 -79.72187 40975 ft 579 kts 59°
2026-05-07 00:09 35.31355 -79.63146 40977 ft 579 kts 59°
2026-05-07 00:09 35.34564 -79.54093 40979 ft 579 kts 59°
2026-05-07 00:10 35.37758 -79.45054 40979 ft 578 kts 59°
2026-05-07 00:10 35.40957 -79.35975 40977 ft 578 kts 59°
2026-05-07 00:11 35.44140 -79.26916 40960 ft 578 kts 59°
2026-05-07 00:11 35.47316 -79.17852 40961 ft 578 kts 59°
2026-05-07 00:12 35.50456 -79.08863 40964 ft 577 kts 59°
2026-05-07 00:12 35.53632 -78.99746 40961 ft 577 kts 59°
2026-05-07 00:13 35.56757 -78.90747 40960 ft 576 kts 59°
2026-05-07 00:13 35.59893 -78.81691 40953 ft 576 kts 59°
2026-05-07 00:14 35.63024 -78.72637 40958 ft 576 kts 59°
2026-05-07 00:14 35.66143 -78.63564 40950 ft 575 kts 59°
2026-05-07 00:15 35.69252 -78.54485 40949 ft 575 kts 59°
2026-05-07 00:15 35.72354 -78.45408 40951 ft 575 kts 59°
2026-05-07 00:16 35.75449 -78.36347 40948 ft 574 kts 59°
2026-05-07 00:16 35.78535 -78.27274 40957 ft 574 kts 59°
2026-05-07 00:17 35.81613 -78.18193 40960 ft 573 kts 59°
2026-05-07 00:17 35.84684 -78.09110 40952 ft 573 kts 59°
2026-05-07 00:18 35.87738 -78.00054 40954 ft 572 kts 59°
2026-05-07 00:18 35.90763 -77.91058 40958 ft 572 kts 59°
2026-05-07 00:19 35.93801 -77.81993 40955 ft 571 kts 60°
2026-05-07 00:19 35.96936 -77.72989 40945 ft 563 kts 53°
2026-05-07 00:20 35.98993 -77.68959 40945 ft 547 kts 42°
2026-05-07 00:20 36.01399 -77.65364 40945 ft 540 kts 38°
2026-05-07 00:20 36.06413 -77.58514 40945 ft 537 kts 36°
2026-05-07 00:21 36.11502 -77.51773 40936 ft 535 kts 36°
2026-05-07 00:21 36.16573 -77.45015 40950 ft 536 kts 36°
2026-05-07 00:22 36.21610 -77.38240 40949 ft 537 kts 36°
2026-05-07 00:22 36.26673 -77.31393 40954 ft 537 kts 37°
2026-05-07 00:23 36.31747 -77.24712 40965 ft 529 kts 31°
2026-05-07 00:23 36.37144 -77.18533 40966 ft 526 kts 31°
2026-05-07 00:24 36.42581 -77.12452 40948 ft 526 kts 30°
2026-05-07 00:24 36.48024 -77.06374 40949 ft 526 kts 30°
2026-05-07 00:25 36.53459 -77.00280 40944 ft 526 kts 31°
2026-05-07 00:25 36.58891 -76.94166 40961 ft 527 kts 31°
2026-05-07 00:26 36.64324 -76.88037 40973 ft 527 kts 31°
2026-05-07 00:26 36.69720 -76.81936 41007 ft 527 kts 31°
2026-05-07 00:27 36.75140 -76.75797 40951 ft 527 kts 31°
2026-05-07 00:27 36.80571 -76.69635 40950 ft 527 kts 31°
2026-05-07 00:28 36.85991 -76.63473 40933 ft 527 kts 31°
2026-05-07 00:28 36.91410 -76.57298 40937 ft 527 kts 31°
2026-05-07 00:29 36.96827 -76.51114 40924 ft 527 kts 31°
2026-05-07 00:30 37.07661 -76.38708 40909 ft 528 kts 31°
2026-05-07 00:30 37.13082 -76.32481 40952 ft 528 kts 31°
2026-05-07 00:31 37.18491 -76.26255 40918 ft 528 kts 31°
2026-05-07 00:31 37.23866 -76.20056 40913 ft 528 kts 31°
2026-05-07 00:32 37.29318 -76.13756 40919 ft 528 kts 31°
2026-05-07 00:32 37.34687 -76.07539 40924 ft 528 kts 31°
2026-05-07 00:33 37.40098 -76.01261 40928 ft 528 kts 32°
2026-05-07 00:33 37.45497 -75.94984 40931 ft 529 kts 32°
2026-05-07 00:34 37.50902 -75.88690 40923 ft 528 kts 32°
2026-05-07 00:34 37.53706 -75.85799 40923 ft 515 kts 23°
2026-05-07 00:34 37.56688 -75.83346 40917 ft 509 kts 20°
2026-05-07 00:35 37.62718 -75.78734 40917 ft 507 kts 19°
2026-05-07 00:35 37.68794 -75.74214 40908 ft 507 kts 18°
2026-05-07 00:36 37.74874 -75.69678 40914 ft 508 kts 19°
2026-05-07 00:36 37.80955 -75.65109 40916 ft 508 kts 19°
2026-05-07 00:37 37.87020 -75.60468 40918 ft 513 kts 21°
2026-05-07 00:37 37.92924 -75.55328 40919 ft 518 kts 24°
2026-05-07 00:38 37.98810 -75.50025 40918 ft 518 kts 24°
2026-05-07 00:38 38.04715 -75.44788 40918 ft 517 kts 23°
2026-05-07 00:39 38.10652 -75.39757 40696 ft 514 kts 21°
2026-05-07 00:39 38.13637 -75.37351 40451 ft 513 kts 20°
2026-05-07 00:39 38.16657 -75.34935 40187 ft 513 kts 20°
2026-05-07 00:40 38.19677 -75.32512 39957 ft 514 kts 20°
2026-05-07 00:40 38.22729 -75.30211 39727 ft 504 kts 14°
2026-05-07 00:40 38.25900 -75.28460 39484 ft 488 kts
2026-05-07 00:40 38.29126 -75.27351 39258 ft 473 kts 358°
2026-05-07 00:41 38.32351 -75.26545 39027 ft 470 kts 356°
2026-05-07 00:41 38.35568 -75.25835 38799 ft 468 kts 355°
2026-05-07 00:41 38.38782 -75.25172 38570 ft 468 kts 355°
2026-05-07 00:41 38.41997 -75.24523 38310 ft 467 kts 355°
2026-05-07 00:42 38.45219 -75.23874 38037 ft 469 kts 355°
2026-05-07 00:42 38.48446 -75.23219 37777 ft 471 kts 355°
2026-05-07 00:42 38.51685 -75.22558 37506 ft 473 kts 355°
2026-05-07 00:42 38.54945 -75.21882 37246 ft 475 kts 355°
2026-05-07 00:43 38.58223 -75.21196 36986 ft 477 kts 355°
2026-05-07 00:43 38.61455 -75.20513 36627 ft 476 kts 356°
2026-05-07 00:43 38.64717 -75.19813 36021 ft 476 kts 356°
2026-05-07 00:43 38.67995 -75.18804 35335 ft 492 kts
2026-05-07 00:44 38.71236 -75.17151 34660 ft 512 kts 15°
2026-05-07 00:44 38.74351 -75.14734 34156 ft 538 kts 25°
2026-05-07 00:44 38.77399 -75.11824 33566 ft 551 kts 27°
2026-05-07 00:44 38.80448 -75.08813 32961 ft 555 kts 28°
2026-05-07 00:45 38.83507 -75.05785 32387 ft 556 kts 28°
2026-05-07 00:45 38.86578 -75.02750 31812 ft 558 kts 28°
2026-05-07 00:45 38.89619 -74.99750 31242 ft 559 kts 28°
2026-05-07 00:45 38.92709 -74.96703 30669 ft 560 kts 28°
2026-05-07 00:46 38.95804 -74.93650 30089 ft 561 kts 28°
2026-05-07 00:46 38.98904 -74.90590 29447 ft 561 kts 29°
2026-05-07 00:46 39.02005 -74.87523 28849 ft 559 kts 29°
2026-05-07 00:46 39.05068 -74.84489 28269 ft 553 kts 29°
2026-05-07 00:47 39.08104 -74.81480 27709 ft 548 kts 29°
2026-05-07 00:47 39.11116 -74.78479 27149 ft 545 kts 30°
2026-05-07 00:47 39.14021 -74.75372 26577 ft 543 kts 32°
2026-05-07 00:47 39.15925 -74.73281 26208 ft 540 kts 32°
2026-05-07 00:48 39.18763 -74.70170 25655 ft 535 kts 32°
2026-05-07 00:48 39.21592 -74.67082 25099 ft 530 kts 32°
2026-05-07 00:48 39.24333 -74.64099 24564 ft 526 kts 32°
2026-05-07 00:48 39.27120 -74.61070 24025 ft 521 kts 32°
2026-05-07 00:49 39.29881 -74.58071 23485 ft 517 kts 32°
2026-05-07 00:49 39.32615 -74.55100 22892 ft 513 kts 32°
2026-05-07 00:49 39.35339 -74.52137 22354 ft 507 kts 32°
2026-05-07 00:49 39.38020 -74.49219 21825 ft 502 kts 33°
2026-05-07 00:50 39.40681 -74.46321 21308 ft 498 kts 33°
2026-05-07 00:50 39.43322 -74.43447 20792 ft 492 kts 33°
2026-05-07 00:50 39.45928 -74.40603 20293 ft 488 kts 33°
2026-05-07 00:50 39.48507 -74.37783 19783 ft 483 kts 33°
2026-05-07 00:51 39.51055 -74.34995 19297 ft 478 kts 34°
2026-05-07 00:51 39.53581 -74.32230 18794 ft 473 kts 34°
2026-05-07 00:51 39.56083 -74.29487 18318 ft 468 kts 34°
2026-05-07 00:51 39.58558 -74.26772 17972 ft 464 kts 34°
2026-05-07 00:52 39.61022 -74.24075 17886 ft 463 kts 34°
2026-05-07 00:52 39.63475 -74.21379 17885 ft 462 kts 34°
2026-05-07 00:52 39.65895 -74.18715 17879 ft 462 kts 34°
2026-05-07 00:52 39.68350 -74.16014 17865 ft 460 kts 34°
2026-05-07 00:53 39.70765 -74.13352 17334 ft 453 kts 34°
2026-05-07 00:53 39.73178 -74.10691 16495 ft 454 kts 35°
2026-05-07 00:53 39.75573 -74.08046 15795 ft 452 kts 36°
2026-05-07 00:53 39.77961 -74.05405 14993 ft 451 kts 36°
2026-05-07 00:54 39.80357 -74.02756 14301 ft 450 kts 36°
2026-05-07 00:54 39.82712 -74.00143 13981 ft 437 kts 36°
2026-05-07 00:54 39.85110 -73.97870 13748 ft 417 kts 26°
2026-05-07 00:54 39.87596 -73.96053 13488 ft 403 kts 23°
2026-05-07 00:55 39.90027 -73.94353 13125 ft 393 kts 22°
2026-05-07 00:55 39.92445 -73.92666 12433 ft 394 kts 23°
2026-05-07 00:55 39.94857 -73.90973 11840 ft 392 kts 23°
2026-05-07 00:55 39.97215 -73.89309 11343 ft 388 kts 23°
2026-05-07 00:56 39.99558 -73.87648 11069 ft 377 kts 23°
2026-05-07 00:56 40.01809 -73.86044 11007 ft 360 kts 23°
2026-05-07 00:56 40.03936 -73.84473 11019 ft 343 kts 26°
2026-05-07 00:56 40.05912 -73.82834 10888 ft 332 kts 27°
2026-05-07 00:57 40.07833 -73.81193 10563 ft 328 kts 27°
2026-05-07 00:57 40.09735 -73.79564 10217 ft 326 kts 27°
2026-05-07 00:57 40.11620 -73.77946 9886 ft 322 kts 27°
2026-05-07 00:57 40.13480 -73.76345 9522 ft 320 kts 27°
2026-05-07 00:58 40.15332 -73.74749 9144 ft 317 kts 27°
2026-05-07 00:58 40.17168 -73.73172 8769 ft 314 kts 27°
2026-05-07 00:58 40.18984 -73.71613 8385 ft 312 kts 27°
2026-05-07 00:58 40.20801 -73.70059 8030 ft 309 kts 27°
2026-05-07 00:59 40.24383 -73.67003 7496 ft 306 kts 27°
2026-05-07 00:59 40.26172 -73.65486 7253 ft 305 kts 27°
2026-05-07 00:59 40.27949 -73.63989 7004 ft 303 kts 27°
2026-05-07 01:00 40.29698 -73.62521 6773 ft 302 kts 27°
2026-05-07 01:00 40.31488 -73.61023 6534 ft 301 kts 27°
2026-05-07 01:00 40.33249 -73.59561 6296 ft 299 kts 27°
2026-05-07 01:00 40.35000 -73.58118 6040 ft 297 kts 27°
2026-05-07 01:01 40.36693 -73.56730 5807 ft 296 kts 27°
2026-05-07 01:01 40.38440 -73.55301 5553 ft 295 kts 27°
2026-05-07 01:01 40.40157 -73.53909 5304 ft 294 kts 27°
2026-05-07 01:01 40.41903 -73.52521 5042 ft 291 kts 24°
2026-05-07 01:02 40.43789 -73.51660 4664 ft 284 kts
2026-05-07 01:02 40.45733 -73.51401 4302 ft 279 kts 358°
2026-05-07 01:02 40.47651 -73.51253 4045 ft 274 kts 357°
2026-05-07 01:02 40.49559 -73.51117 3998 ft 275 kts 357°
2026-05-07 01:03 40.51475 -73.50979 4004 ft 275 kts 357°
2026-05-07 01:03 40.53379 -73.50840 4007 ft 275 kts 357°
2026-05-07 01:03 40.55299 -73.50703 4000 ft 275 kts 357°
2026-05-07 01:03 40.57208 -73.50564 4001 ft 275 kts 357°
2026-05-07 01:04 40.59131 -73.50432 3650 ft 280 kts 357°
2026-05-07 01:04 40.61064 -73.50310 3362 ft 274 kts 357°
2026-05-07 01:04 40.62936 -73.50186 3190 ft 264 kts 357°
2026-05-07 01:04 40.64738 -73.50058 3008 ft 255 kts 357°
2026-05-07 01:05 40.66487 -73.49930 2833 ft 247 kts 357°
2026-05-07 01:05 40.68173 -73.49798 2661 ft 239 kts 357°
2026-05-07 01:05 40.69792 -73.49663 2452 ft 234 kts 357°
2026-05-07 01:05 40.71425 -73.49522 2215 ft 231 kts 357°
2026-05-07 01:06 40.73017 -73.49450 2016 ft 224 kts 349°
2026-05-07 01:06 40.74393 -73.50103 2002 ft 200 kts 316°
2026-05-07 01:06 40.75278 -73.51374 2002 ft 181 kts 299°
2026-05-07 01:06 40.75987 -73.52739 2004 ft 180 kts 297°
2026-05-07 01:07 40.76668 -73.54098 2000 ft 180 kts 297°
2026-05-07 01:07 40.77367 -73.55495 1997 ft 180 kts 297°
2026-05-07 01:07 40.78057 -73.56877 1998 ft 181 kts 297°
2026-05-07 01:07 40.78738 -73.58241 1992 ft 180 kts 297°
2026-05-07 01:08 40.79282 -73.59698 1985 ft 176 kts 278°
2026-05-07 01:08 40.79114 -73.61247 2004 ft 172 kts 245°
2026-05-07 01:08 40.78507 -73.62573 1995 ft 171 kts 238°
2026-05-07 01:08 40.77825 -73.63858 1989 ft 171 kts 237°
2026-05-07 01:09 40.77139 -73.65131 1987 ft 168 kts 237°
2026-05-07 01:09 40.76274 -73.66156 1994 ft 166 kts 220°
2026-05-07 01:09 40.75303 -73.66974 1993 ft 165 kts 216°
2026-05-07 01:09 40.74330 -73.67763 1994 ft 164 kts 218°
2026-05-07 01:10 40.73362 -73.68553 1983 ft 161 kts 216°
2026-05-07 01:10 40.72408 -73.69292 1825 ft 156 kts 216°
2026-05-07 01:10 40.71500 -73.70007 1618 ft 146 kts 216°
2026-05-07 01:10 40.70674 -73.70658 1414 ft 131 kts 217°
2026-05-07 01:11 40.69930 -73.71244 1266 ft 124 kts 216°
2026-05-07 01:11 40.69182 -73.71836 1097 ft 124 kts 215°
2026-05-07 01:11 40.68512 -73.72369 956 ft 129 kts 214°
2026-05-07 01:11 40.67742 -73.72975 745 ft 127 kts 212°
2026-05-07 01:12 40.66976 -73.73565 625 ft 129 kts 211°
2026-05-07 01:12 40.66201 -73.74167 451 ft 129 kts 211°
2026-05-07 01:12 40.65427 -73.74775 269 ft 129 kts 209°
2026-05-07 01:12 40.64674 -73.75373 99 ft 130 kts 211°
2026-05-07 01:13 40.63900 -73.75973 30 ft 113 kts 211°
2026-05-07 01:13 40.63395 -73.76369 28 ft 55 kts 210°
2026-05-07 01:13 40.63179 -73.76540 30 ft 31 kts 211°
2026-05-07 01:13 40.63015 -73.76710 28 ft 29 kts 230°
2026-05-07 01:14 40.62929 -73.76923 22 ft 22 kts 265°
2026-05-07 01:14 40.62984 -73.77093 22 ft 21 kts 301°
2026-05-07 01:14 40.63062 -73.77263 22 ft 23 kts 301°
2026-05-07 01:14 40.63146 -73.77449 22 ft 22 kts 301°
2026-05-07 01:15 40.63190 -73.77545 23 ft 5 kts 301°
2026-05-07 01:15 40.63198 -73.77562 24 ft 0 kts 301°
2026-05-07 01:15 40.63218 -73.77607 25 ft 13 kts 301°
2026-05-07 01:16 40.63284 -73.77753 27 ft 24 kts 301°
2026-05-07 01:16 40.63356 -73.77913 23 ft 21 kts 300°
2026-05-07 01:16 40.63439 -73.78107 22 ft 19 kts 299°
2026-05-07 01:16 40.63500 -73.78240 22 ft 13 kts 302°
2026-05-07 01:17 40.63551 -73.78274 22 ft 8 kts 26°
2026-05-07 01:17 40.63652 -73.78259 22 ft 17 kts 353°
2026-05-07 01:17 40.63779 -73.78281 22 ft 19 kts 353°
2026-05-07 01:17 40.63885 -73.78300 22 ft 15 kts 347°
2026-05-07 01:18 40.63985 -73.78364 22 ft 17 kts 329°
2026-05-07 01:18 40.64080 -73.78436 22 ft 14 kts 331°
2026-05-07 01:18 40.64145 -73.78474 22 ft 9 kts 357°
2026-05-07 01:18 40.64195 -73.78453 22 ft 5 kts 52°
2026-05-07 01:19 40.64198 -73.78445 22 ft 0 kts 59°
2026-05-07 01:19 40.64203 -73.78432 22 ft 2 kts 64°
2026-05-07 01:19 40.64209 -73.78416 22 ft 0 kts 61°